| time (UTC) | temp C | wind direction | speed KPH | gust KPH | rain 1hr cm | rain 24hr cm | rain mn cm | humidity % | barometer mb |
| 20260906221533 | 25 | 103 | 3.2 | 8.0 | 0.00 | 0.00 | 0.00 | 36 | 1005.7 |
| 20260906220027 | 25 | 136 | 4.8 | 24.1 | 0.00 | 0.00 | 0.00 | 35 | 1005.7 |
| 20260906214526 | 26 | 29 | 4.8 | 14.5 | 0.00 | 0.00 | 0.00 | 32 | 1005.8 |
| 20260906213026 | 27 | 159 | 3.2 | 16.1 | 0.00 | 0.00 | 0.00 | 31 | 1005.8 |
| 20260906211524 | 28 | 139 | 6.4 | 19.3 | 0.00 | 0.00 | 0.00 | 30 | 1005.9 |
| 20260906210023 | 28 | 102 | 4.8 | 12.9 | 0.00 | 0.00 | 0.00 | 29 | 1006.0 |
| 20260906204521 | 28 | 207 | 4.8 | 12.9 | 0.00 | 0.00 | 0.00 | 31 | 1006.2 |
| 20260906203029 | 27 | 173 | 4.8 | 22.5 | 0.00 | 0.00 | 0.00 | 30 | 1006.2 |
| 20260906201614 | 27 | 72 | 6.4 | 25.7 | 0.00 | 0.00 | 0.00 | 31 | 1006.1 |
| 20260906200012 | 27 | 154 | 8.0 | 17.7 | 0.00 | 0.00 | 0.00 | 32 | 1006.3 |
| 20260906194510 | 27 | 78 | 6.4 | 20.9 | 0.00 | 0.00 | 0.00 | 31 | 1006.4 |
| 20260906193010 | 28 | 154 | 4.8 | 14.5 | 0.00 | 0.00 | 0.00 | 31 | 1006.7 |
| 20260906191505 | 27 | 69 | 4.8 | 22.5 | 0.00 | 0.00 | 0.00 | 31 | 1006.8 |
| 20260906190002 | 27 | 115 | 4.8 | 14.5 | 0.00 | 0.00 | 0.00 | 31 | 1007.1 |
| 20260906184610 | 26 | 39 | 4.8 | 16.1 | 0.00 | 0.00 | 0.00 | 33 | 1007.3 |
| 20260906183109 | 26 | 107 | 3.2 | 12.9 | 0.00 | 0.00 | 0.00 | 31 | 1007.6 |
| 20260906181601 | 27 | 98 | 6.4 | 16.1 | 0.00 | 0.00 | 0.00 | 30 | 1007.8 |
| 20260906180117 | 27 | 52 | 3.2 | 9.7 | 0.00 | 0.00 | 0.00 | 29 | 1008.0 |
| 20260906174609 | 27 | 128 | 3.2 | 12.9 | 0.00 | 0.00 | 0.00 | 29 | 1008.3 |
| 20260906173047 | 26 | 123 | 3.2 | 12.9 | 0.00 | 0.00 | 0.00 | 31 | 1008.5 |
| 20260906171605 | 26 | 57 | 0.0 | 6.4 | 0.00 | 0.00 | 0.00 | 31 | 1008.5 |
| 20260906170057 | 26 | 138 | 1.6 | 6.4 | 0.00 | 0.00 | 0.00 | 30 | 1008.6 |
| 20260906164544 | 26 | 84 | 3.2 | 12.9 | 0.00 | 0.00 | 0.00 | 29 | 1008.6 |
| 20260906163040 | 25 | 51 | 3.2 | 12.9 | 0.00 | 0.00 | 0.00 | 30 | 1008.9 |
| 20260906161547 | 24 | 136 | 3.2 | 11.3 | 0.00 | 0.00 | 0.00 | 32 | 1009.0 |
| 20260906160033 | 23 | 137 | 1.6 | 6.4 | 0.00 | 0.00 | 0.00 | 37 | 1008.9 |
| 20260906154526 | 21 | 44 | 0.0 | 4.8 | 0.00 | 0.00 | 0.00 | 38 | 1009.1 |
| 20260906153030 | 20 | 115 | 0.0 | 4.8 | 0.00 | 0.00 | 0.00 | 45 | 1009.3 |
| 20260906151520 | 18 | 64 | 0.0 | 1.6 | 0.00 | 0.00 | 0.00 | 49 | 1009.4 |
| 20260906150013 | 17 | 64 | 0.0 | 4.8 | 0.00 | 0.00 | 0.00 | 54 | 1009.6 |
| 20260906144511 | 16 | 64 | 0.0 | 1.6 | 0.00 | 0.00 | 0.00 | 54 | 1009.6 |
| 20260906143004 | 14 | 64 | 1.6 | 4.8 | 0.00 | 0.00 | 0.00 | 59 | 1009.7 |
| 20260906141621 | 12 | 16 | 0.0 | 0.0 | 0.00 | 0.00 | 0.00 | 68 | 1009.7 |
| 20260906140058 | 11 | 16 | 0.0 | 0.0 | 0.00 | 0.00 | 0.00 | 71 | 1009.6 |
| 20260906134555 | 10 | 16 | 0.0 | 0.0 | 0.00 | 0.00 | 0.00 | 73 | 1009.5 |
| 20260906133059 | 9 | 16 | 0.0 | 0.0 | 0.00 | 0.00 | 0.00 | 74 | 1009.4 |
| 20260906131600 | 9 | 16 | 0.0 | 0.0 | 0.00 | 0.00 | 0.00 | 73 | 1009.2 |
| 20260906130055 | 10 | 16 | 0.0 | 0.0 | 0.00 | 0.00 | 0.00 | 72 | 1009.0 |
| 20260906124542 | 10 | 16 | 0.0 | 0.0 | 0.00 | 0.00 | 0.00 | 70 | 1008.8 |
| 20260906123041 | 10 | 16 | 0.0 | 0.0 | 0.00 | 0.00 | 0.00 | 70 | 1008.7 |
| 20260906121541 | 10 | 16 | 0.0 | 0.0 | 0.00 | 0.00 | 0.00 | 69 | 1008.6 |
| 20260906120038 | 10 | 16 | 0.0 | 4.8 | 0.00 | 0.00 | 0.00 | 70 | 1008.6 |
| 20260906114546 | 10 | 333 | 0.0 | 0.0 | 0.00 | 0.00 | 0.00 | 69 | 1008.6 |
| 20260906113037 | 10 | 333 | 0.0 | 0.0 | 0.00 | 0.00 | 0.00 | 69 | 1008.7 |
| 20260906111542 | 10 | 36 | 0.0 | 0.0 | 0.00 | 0.00 | 0.00 | 68 | 1008.7 |
| 20260906110032 | 11 | 36 | 0.0 | 1.6 | 0.00 | 0.00 | 0.00 | 67 | 1008.7 |
| 20260906104532 | 11 | 360 | 0.0 | 0.0 | 0.00 | 0.00 | 0.00 | 66 | 1008.7 |
| 20260906103026 | 11 | 360 | 0.0 | 1.6 | 0.00 | 0.00 | 0.00 | 64 | 1008.5 |
| 20260906101529 | 12 | 360 | 0.0 | 0.0 | 0.00 | 0.00 | 0.00 | 63 | 1008.7 |
| 20260906100030 | 12 | 360 | 0.0 | 0.0 | 0.00 | 0.00 | 0.00 | 62 | 1008.8 |
| 20260906094519 | 12 | 360 | 0.0 | 4.8 | 0.00 | 0.00 | 0.00 | 62 | 1008.8 |
| 20260906093018 | 12 | 360 | 0.0 | 4.8 | 0.00 | 0.00 | 0.00 | 62 | 1008.8 |
| 20260906091519 | 12 | 355 | 0.0 | 3.2 | 0.00 | 0.00 | 0.00 | 61 | 1008.8 |
| 20260906090016 | 13 | 335 | 0.0 | 0.0 | 0.00 | 0.00 | 0.00 | 61 | 1008.8 |
| 20260906084514 | 13 | 335 | 0.0 | 1.6 | 0.00 | 0.00 | 0.00 | 60 | 1008.7 |
| 20260906083010 | 13 | 294 | 0.0 | 1.6 | 0.00 | 0.00 | 0.00 | 59 | 1008.8 |
| 20260906081508 | 14 | 294 | 0.0 | 0.0 | 0.00 | 0.00 | 0.00 | 58 | 1009.0 |
| 20260906080006 | 14 | 294 | 0.0 | 1.6 | 0.00 | 0.00 | 0.00 | 57 | 1008.9 |
| 20260906074504 | 15 | 294 | 0.0 | 0.0 | 0.00 | 0.00 | 0.00 | 56 | 1009.0 |
| 20260906073005 | 15 | 294 | 0.0 | 3.2 | 0.00 | 0.00 | 0.00 | 55 | 1009.0 |
| 20260906071559 | 15 | 294 | 0.0 | 1.6 | 0.00 | 0.00 | 0.00 | 54 | 1008.8 |
| 20260906070057 | 15 | 294 | 0.0 | 1.6 | 0.00 | 0.00 | 0.00 | 53 | 1009.0 |
| 20260906064553 | 16 | 292 | 0.0 | 3.2 | 0.00 | 0.00 | 0.00 | 52 | 1009.2 |
| 20260906063052 | 16 | 292 | 0.0 | 1.6 | 0.00 | 0.00 | 0.00 | 51 | 1009.1 |
| 20260906061553 | 16 | 292 | 0.0 | 4.8 | 0.00 | 0.00 | 0.00 | 51 | 1009.1 |
| 20260906060103 | 16 | 298 | 0.0 | 1.6 | 0.00 | 0.00 | 0.00 | 51 | 1009.0 |
| 20260906054553 | 16 | 312 | 0.0 | 3.2 | 0.00 | 0.00 | 0.00 | 51 | 1009.1 |
| 20260906053047 | 16 | 292 | 0.0 | 0.0 | 0.00 | 0.00 | 0.00 | 51 | 1009.0 |
| 20260906051546 | 16 | 27 | 0.0 | 3.2 | 0.00 | 0.00 | 0.00 | 51 | 1009.0 |
| 20260906050046 | 16 | 287 | 0.0 | 4.8 | 0.00 | 0.00 | 0.00 | 51 | 1008.9 |
| 20260906044546 | 16 | 134 | 3.2 | 6.4 | 0.00 | 0.00 | 0.00 | 52 | 1008.9 |
| 20260906043047 | 16 | 220 | 0.0 | 3.2 | 0.00 | 0.00 | 0.00 | 53 | 1008.6 |
| 20260906041645 | 16 | 288 | 0.0 | 3.2 | 0.00 | 0.00 | 0.00 | 52 | 1008.7 |
| 20260906040044 | 16 | 291 | 0.0 | 3.2 | 0.00 | 0.00 | 0.00 | 52 | 1008.6 |
| 20260906034558 | 16 | 216 | 1.6 | 8.0 | 0.00 | 0.00 | 0.00 | 52 | 1008.9 |
| 20260906033045 | 17 | 295 | 0.0 | 3.2 | 0.00 | 0.00 | 0.00 | 53 | 1008.9 |
| 20260906031543 | 17 | 248 | 0.0 | 6.4 | 0.00 | 0.00 | 0.00 | 52 | 1008.6 |
| 20260906030044 | 17 | 288 | 0.0 | 3.2 | 0.00 | 0.00 | 0.00 | 52 | 1008.6 |
| 20260906024541 | 18 | 284 | 0.0 | 4.8 | 0.00 | 0.00 | 0.00 | 52 | 1008.4 |
| 20260906023040 | 18 | 181 | 0.0 | 4.8 | 0.00 | 0.00 | 0.00 | 51 | 1008.3 |
| 20260906021543 | 18 | 178 | 1.6 | 8.0 | 0.00 | 0.00 | 0.00 | 51 | 1007.9 |
| 20260906020040 | 19 | 284 | 1.6 | 8.0 | 0.00 | 0.00 | 0.00 | 49 | 1007.9 |
| 20260906014547 | 19 | 209 | 1.6 | 8.0 | 0.00 | 0.00 | 0.00 | 49 | 1008.1 |
| 20260906013039 | 20 | 232 | 3.2 | 12.9 | 0.00 | 0.00 | 0.00 | 49 | 1007.7 |
| 20260906011538 | 20 | 283 | 3.2 | 6.4 | 0.00 | 0.00 | 0.00 | 48 | 1007.9 |
| 20260906010045 | 20 | 276 | 0.0 | 6.4 | 0.00 | 0.00 | 0.00 | 44 | 1007.8 |
| 20260906004545 | 20 | 136 | 3.2 | 12.9 | 0.00 | 0.00 | 0.00 | 45 | 1008.2 |
| 20260906003037 | 20 | 232 | 1.6 | 8.0 | 0.00 | 0.00 | 0.00 | 46 | 1008.5 |
| 20260906001551 | 21 | 279 | 1.6 | 8.0 | 0.00 | 0.00 | 0.00 | 44 | 1008.1 |
| 20260906000036 | 21 | 287 | 3.2 | 11.3 | 0.00 | 0.00 | 0.00 | 41 | 1008.2 |
| 20260905234537 | 22 | 274 | 0.0 | 11.3 | 0.00 | 0.00 | 0.00 | 39 | 1008.1 |
| 20260905233034 | 22 | 286 | 3.2 | 14.5 | 0.00 | 0.00 | 0.00 | 38 | 1008.0 |
| 20260905231533 | 23 | 279 | 0.0 | 11.3 | 0.00 | 0.00 | 0.00 | 36 | 1008.0 |
| 20260905230035 | 24 | 236 | 1.6 | 9.7 | 0.00 | 0.00 | 0.00 | 32 | 1007.8 |
| 20260905224534 | 25 | 139 | 8.0 | 22.5 | 0.00 | 0.00 | 0.00 | 30 | 1007.5 |
| 20260905223045 | 25 | 82 | 0.0 | 4.8 | 0.00 | 0.00 | 0.00 | 28 | 1006.9 |